GE 8

operational
NORAD ID: 26639 Int'l Des: 2000-081 Owner: AMCG Country: US
HEOCIRCULAR

关于 GE 8

正在加载描述...

实时位置

正在加载3D地球...

即将过境

高度历史

Altitude vs Time

uPlot chart will show altitude changes over time

两行轨道根数

1 26639U 00081B 26062.03439020 -.00000057 00000-0 00000+0 0 9994
2 26639 5.8485 73.8516 0008037 242.5953 309.7155 0.99147589 92133
Epoch: Mar 3, 2026 • Age: 25 hours

当前状态

高度 36082.7 km
速度 3.06 km/s
星下点 -1.21°S, 88.77°E
发射日期 Dec 20, 2000
运行时间 25.2 years
类型 other

技术详情

分类 Payload
质量 2015.00 kg
干质量 919.00 kg
总质量 2015.00 kg
长度 4.10 m
直径 3.60 m
跨度 14.50 m
形状 Box + 2 Pan
制造商 LMCSS
平台类型 A2100A
阶段状态 Unknown Active Status
所有者/国家 AMCG/US

大型星座

Loading constellations...